SKW5361 KSFO-KBUR

Flight info

Callsign SKW5361
Flight time 0h 51m
Altitude 33000
Route WESLA5 KTINA CISKO RDHOT ROKKR3
Aircraft E175/M-SDE3GILORVW/S

Departure

Time 2026-05-06 04:14
Airport San Francisco International Airport (KSFO)

Arrival

Time 2026-05-06 05:05
Airport Hollywood Burbank/Bob Hope Airport (KBUR)
Time Latitude Longitude Altitude Speed Heading
2026-05-06 03:39 37.62080 -122.38632 20 ft 0 kts 267°
2026-05-06 04:01 37.62080 -122.38611 4 ft 2 kts 272°
2026-05-06 04:02 37.62078 -122.38591 28 ft 2 kts 283°
2026-05-06 04:02 37.62071 -122.38573 21 ft 2 kts 330°
2026-05-06 04:02 37.62057 -122.38572 23 ft 1 kts 19°
2026-05-06 04:02 37.62054 -122.38574 20 ft 0 kts 22°
2026-05-06 04:06 37.62055 -122.38573 23 ft 1 kts 22°
2026-05-06 04:06 37.62056 -122.38573 23 ft 0 kts 22°
2026-05-06 04:07 37.62066 -122.38567 20 ft 4 kts 24°
2026-05-06 04:07 37.62090 -122.38528 20 ft 8 kts 86°
2026-05-06 04:07 37.62067 -122.38445 20 ft 12 kts 116°
2026-05-06 04:08 37.62023 -122.38340 21 ft 14 kts 117°
2026-05-06 04:08 37.61974 -122.38222 21 ft 16 kts 118°
2026-05-06 04:08 37.61919 -122.38092 21 ft 17 kts 118°
2026-05-06 04:08 37.61861 -122.37950 20 ft 19 kts 120°
2026-05-06 04:09 37.61812 -122.37812 20 ft 7 kts 113°
2026-05-06 04:09 37.61805 -122.37790 20 ft 5 kts 113°
2026-05-06 04:09 37.61782 -122.37718 20 ft 12 kts 111°
2026-05-06 04:09 37.61740 -122.37588 20 ft 19 kts 108°
2026-05-06 04:10 37.61686 -122.37431 20 ft 20 kts 118°
2026-05-06 04:10 37.61618 -122.37271 21 ft 21 kts 117°
2026-05-06 04:10 37.61546 -122.37097 21 ft 23 kts 117°
2026-05-06 04:10 37.61464 -122.36920 20 ft 23 kts 129°
2026-05-06 04:11 37.61360 -122.36768 20 ft 23 kts 122°
2026-05-06 04:11 37.61283 -122.36582 20 ft 24 kts 118°
2026-05-06 04:11 37.61200 -122.36389 20 ft 26 kts 118°
2026-05-06 04:11 37.61129 -122.36217 21 ft 20 kts 118°
2026-05-06 04:12 37.61064 -122.36062 20 ft 15 kts 119°
2026-05-06 04:12 37.61068 -122.35935 21 ft 15 kts 49°
2026-05-06 04:12 37.61094 -122.35908 22 ft 0 kts 31°
2026-05-06 04:12 37.61095 -122.35907 21 ft 2 kts 31°
2026-05-06 04:13 37.61130 -122.35881 20 ft 9 kts 28°
2026-05-06 04:13 37.61192 -122.35885 20 ft 9 kts 294°
2026-05-06 04:13 37.61249 -122.36028 20 ft 37 kts 298°
2026-05-06 04:13 37.61472 -122.36559 20 ft 100 kts 297°
2026-05-06 04:14 37.61903 -122.37554 144 ft 149 kts 297°
2026-05-06 04:14 37.62410 -122.38761 857 ft 164 kts 296°
2026-05-06 04:14 37.62975 -122.40131 1766 ft 184 kts 296°
2026-05-06 04:14 37.63570 -122.41640 2827 ft 199 kts 295°
2026-05-06 04:15 37.64230 -122.43392 3239 ft 244 kts 292°
2026-05-06 04:15 37.64931 -122.45350 4485 ft 235 kts 296°
2026-05-06 04:15 37.65624 -122.47214 5839 ft 230 kts 298°
2026-05-06 04:15 37.66353 -122.49004 7002 ft 230 kts 301°
2026-05-06 04:16 37.66865 -122.50871 7924 ft 228 kts 275°
2026-05-06 04:16 37.66492 -122.52806 8578 ft 230 kts 244°
2026-05-06 04:16 37.65519 -122.54423 8989 ft 241 kts 223°
2026-05-06 04:16 37.64054 -122.55463 9475 ft 246 kts 195°
2026-05-06 04:17 37.62298 -122.55803 9871 ft 266 kts 175°
2026-05-06 04:17 37.60487 -122.55130 10034 ft 285 kts 151°
2026-05-06 04:17 37.58682 -122.53966 10430 ft 300 kts 150°
2026-05-06 04:17 37.56770 -122.52733 10885 ft 308 kts 150°
2026-05-06 04:18 37.54865 -122.51541 11806 ft 306 kts 150°
2026-05-06 04:18 37.52926 -122.50314 12195 ft 323 kts 149°
2026-05-06 04:18 37.50914 -122.48863 12405 ft 341 kts 142°
2026-05-06 04:18 37.49038 -122.46930 12691 ft 355 kts 135°
2026-05-06 04:19 37.47212 -122.44800 13274 ft 361 kts 134°
2026-05-06 04:19 37.45357 -122.42641 13980 ft 364 kts 134°
2026-05-06 04:19 37.43480 -122.40479 14660 ft 367 kts 134°
2026-05-06 04:19 37.41584 -122.38303 15312 ft 371 kts 134°
2026-05-06 04:20 37.39670 -122.36105 15955 ft 374 kts 134°
2026-05-06 04:20 37.37735 -122.33889 16592 ft 378 kts 134°
2026-05-06 04:20 37.35781 -122.31660 17201 ft 382 kts 134°
2026-05-06 04:20 37.33803 -122.29403 17825 ft 386 kts 134°
2026-05-06 04:21 37.31808 -122.27125 18434 ft 389 kts 134°
2026-05-06 04:21 37.29793 -122.24825 18944 ft 393 kts 134°
2026-05-06 04:21 37.27760 -122.22505 19452 ft 396 kts 133°
2026-05-06 04:21 37.25756 -122.20225 20237 ft 395 kts 133°
2026-05-06 04:22 37.23710 -122.17899 20822 ft 399 kts 133°
2026-05-06 04:22 37.21645 -122.15542 21382 ft 404 kts 133°
2026-05-06 04:22 37.19548 -122.13155 21877 ft 410 kts 133°
2026-05-06 04:23 37.15287 -122.08316 22903 ft 418 kts 133°
2026-05-06 04:23 37.13125 -122.05855 23415 ft 422 kts 132°
2026-05-06 04:23 37.10941 -122.03374 23900 ft 425 kts 132°
2026-05-06 04:23 37.08744 -122.00878 24334 ft 427 kts 132°
2026-05-06 04:24 37.06534 -121.98373 24794 ft 430 kts 132°
2026-05-06 04:24 37.04312 -121.95854 25283 ft 431 kts 132°
2026-05-06 04:24 37.02083 -121.93331 25806 ft 432 kts 132°
2026-05-06 04:24 36.99855 -121.90818 26461 ft 430 kts 132°
2026-05-06 04:25 36.97642 -121.88323 27098 ft 427 kts 132°
2026-05-06 04:25 36.95447 -121.85847 27829 ft 423 kts 132°
2026-05-06 04:25 36.93272 -121.83391 28418 ft 421 kts 131°
2026-05-06 04:25 36.91096 -121.80935 28947 ft 421 kts 131°
2026-05-06 04:26 36.88931 -121.78492 29546 ft 418 kts 131°
2026-05-06 04:26 36.86818 -121.76119 30217 ft 415 kts 131°
2026-05-06 04:26 36.84614 -121.73621 30187 ft 428 kts 131°
2026-05-06 04:26 36.82381 -121.71087 30175 ft 440 kts 131°
2026-05-06 04:27 36.80113 -121.68523 30223 ft 450 kts 131°
2026-05-06 04:27 36.77783 -121.65900 30527 ft 451 kts 131°
2026-05-06 04:27 36.75446 -121.63280 30924 ft 450 kts 131°
2026-05-06 04:27 36.73126 -121.60684 31475 ft 446 kts 131°
2026-05-06 04:28 36.70827 -121.58113 32005 ft 442 kts 131°
2026-05-06 04:28 36.68545 -121.55558 32441 ft 440 kts 131°
2026-05-06 04:28 36.66264 -121.53001 32771 ft 441 kts 131°
2026-05-06 04:28 36.63988 -121.50452 33185 ft 436 kts 130°
2026-05-06 04:29 36.62487 -121.48771 33162 ft 439 kts 130°
2026-05-06 04:29 36.57910 -121.43631 33152 ft 445 kts 130°
2026-05-06 04:30 36.53287 -121.38464 33160 ft 447 kts 130°
2026-05-06 04:30 36.48655 -121.33295 33124 ft 447 kts 130°
2026-05-06 04:31 36.44042 -121.28152 33126 ft 447 kts 130°
2026-05-06 04:31 36.39410 -121.22995 33114 ft 447 kts 130°
2026-05-06 04:32 36.34781 -121.17857 33105 ft 446 kts 130°
2026-05-06 04:32 36.30148 -121.12719 33107 ft 447 kts 130°
2026-05-06 04:33 36.25513 -121.07583 33104 ft 447 kts 130°
2026-05-06 04:33 36.20874 -121.02455 33108 ft 446 kts 130°
2026-05-06 04:34 36.16230 -120.97334 33089 ft 445 kts 130°
2026-05-06 04:34 36.11627 -120.92260 33106 ft 446 kts 130°
2026-05-06 04:35 36.06995 -120.87168 33081 ft 446 kts 130°
2026-05-06 04:35 36.02354 -120.82074 33092 ft 445 kts 130°
2026-05-06 04:36 35.97722 -120.76994 33092 ft 444 kts 130°
2026-05-06 04:36 35.93095 -120.71925 33089 ft 445 kts 130°
2026-05-06 04:37 35.88471 -120.66864 33091 ft 445 kts 130°
2026-05-06 04:37 35.83835 -120.61809 33100 ft 443 kts 130°
2026-05-06 04:38 35.79212 -120.56774 33114 ft 443 kts 130°
2026-05-06 04:38 35.74622 -120.51776 33119 ft 443 kts 130°
2026-05-06 04:39 35.69996 -120.46759 33116 ft 443 kts 130°
2026-05-06 04:39 35.65242 -120.41892 33111 ft 445 kts 133°
2026-05-06 04:40 35.60418 -120.37130 33103 ft 442 kts 133°
2026-05-06 04:40 35.55688 -120.32304 33100 ft 441 kts 131°
2026-05-06 04:41 35.51020 -120.27398 33088 ft 441 kts 131°
2026-05-06 04:41 35.46387 -120.22563 33087 ft 440 kts 131°
2026-05-06 04:42 35.41712 -120.17699 33079 ft 440 kts 131°
2026-05-06 04:42 35.37038 -120.12849 33073 ft 440 kts 131°
2026-05-06 04:43 35.32378 -120.08021 33101 ft 429 kts 131°
2026-05-06 04:43 35.27887 -120.03382 33096 ft 420 kts 131°
2026-05-06 04:44 35.23467 -119.98807 33053 ft 407 kts 130°
2026-05-06 04:44 35.21338 -119.96620 32865 ft 392 kts 130°
2026-05-06 04:44 35.19282 -119.94502 32564 ft 381 kts 130°
2026-05-06 04:44 35.17277 -119.92431 32202 ft 374 kts 129°
2026-05-06 04:45 35.15302 -119.90398 31742 ft 369 kts 129°
2026-05-06 04:45 35.13338 -119.88385 31228 ft 367 kts 129°
2026-05-06 04:45 35.11390 -119.86370 30600 ft 367 kts 129°
2026-05-06 04:45 35.09436 -119.84344 29856 ft 370 kts 129°
2026-05-06 04:46 35.07460 -119.82298 28884 ft 375 kts 129°
2026-05-06 04:46 35.05458 -119.80221 27957 ft 380 kts 130°
2026-05-06 04:46 35.03438 -119.78115 26909 ft 385 kts 131°
2026-05-06 04:46 35.01373 -119.75995 25908 ft 392 kts 131°
2026-05-06 04:47 34.99268 -119.73841 24934 ft 398 kts 132°
2026-05-06 04:47 34.97156 -119.71680 24378 ft 394 kts 133°
2026-05-06 04:47 34.95039 -119.69532 23823 ft 398 kts 133°
2026-05-06 04:47 34.92905 -119.67358 23229 ft 401 kts 133°
2026-05-06 04:48 34.90763 -119.65179 22733 ft 400 kts 133°
2026-05-06 04:48 34.88662 -119.63036 22203 ft 397 kts 134°
2026-05-06 04:48 34.86697 -119.60700 21697 ft 385 kts 125°
2026-05-06 04:48 34.85019 -119.58245 21222 ft 381 kts 123°
2026-05-06 04:49 34.83365 -119.55743 20727 ft 379 kts 123°
2026-05-06 04:49 34.81712 -119.53254 20278 ft 377 kts 123°
2026-05-06 04:49 34.80069 -119.50786 19780 ft 374 kts 124°
2026-05-06 04:49 34.78424 -119.48338 19304 ft 372 kts 124°
2026-05-06 04:50 34.76791 -119.45911 18904 ft 368 kts 124°
2026-05-06 04:50 34.75200 -119.43490 18563 ft 368 kts 124°
2026-05-06 04:50 34.73613 -119.41047 18089 ft 366 kts 124°
2026-05-06 04:50 34.72033 -119.38627 17646 ft 363 kts 124°
2026-05-06 04:51 34.70469 -119.36235 17261 ft 360 kts 125°
2026-05-06 04:51 34.68930 -119.33886 16758 ft 360 kts 125°
2026-05-06 04:51 34.67380 -119.31523 16411 ft 355 kts 125°
2026-05-06 04:51 34.65845 -119.29184 15991 ft 352 kts 125°
2026-05-06 04:52 34.64331 -119.26888 15575 ft 345 kts 126°
2026-05-06 04:52 34.62964 -119.24543 15180 ft 336 kts 118°
2026-05-06 04:52 34.61819 -119.22086 14712 ft 332 kts 116°
2026-05-06 04:52 34.60706 -119.19663 14272 ft 325 kts 116°
2026-05-06 04:53 34.59590 -119.17317 13859 ft 318 kts 117°
2026-05-06 04:53 34.58479 -119.15016 13418 ft 312 kts 117°
2026-05-06 04:53 34.57376 -119.12779 13021 ft 306 kts 117°
2026-05-06 04:53 34.56385 -119.10534 12633 ft 297 kts 110°
2026-05-06 04:54 34.55692 -119.08202 12260 ft 292 kts 105°
2026-05-06 04:54 34.54980 -119.05921 11912 ft 290 kts 115°
2026-05-06 04:54 34.53652 -119.04076 11616 ft 294 kts 138°
2026-05-06 04:54 34.51982 -119.02609 11290 ft 298 kts 142°
2026-05-06 04:55 34.50259 -119.01218 11002 ft 296 kts 143°
2026-05-06 04:55 34.48566 -118.99861 10699 ft 296 kts 142°
2026-05-06 04:55 34.46859 -118.98468 10387 ft 295 kts 142°
2026-05-06 04:55 34.45172 -118.97074 10173 ft 291 kts 141°
2026-05-06 04:56 34.43509 -118.95675 9983 ft 290 kts 142°
2026-05-06 04:56 34.41824 -118.94317 9808 ft 291 kts 142°
2026-05-06 04:56 34.40135 -118.92976 9741 ft 289 kts 143°
2026-05-06 04:56 34.38451 -118.91628 9648 ft 292 kts 142°
2026-05-06 04:57 34.36753 -118.90259 9330 ft 293 kts 142°
2026-05-06 04:57 34.35196 -118.88706 9061 ft 288 kts 134°
2026-05-06 04:57 34.33761 -118.87020 8694 ft 287 kts 133°
2026-05-06 04:57 34.32329 -118.85345 8286 ft 285 kts 134°
2026-05-06 04:58 34.30891 -118.83698 7921 ft 285 kts 135°
2026-05-06 04:58 34.29424 -118.82083 7515 ft 284 kts 136°
2026-05-06 04:58 34.27959 -118.80487 7151 ft 282 kts 136°
2026-05-06 04:58 34.26651 -118.78753 6757 ft 278 kts 120°
2026-05-06 04:59 34.25784 -118.76696 6408 ft 273 kts 113°
2026-05-06 04:59 34.25039 -118.74585 5994 ft 272 kts 112°
2026-05-06 04:59 34.24297 -118.72490 5634 ft 269 kts 113°
2026-05-06 04:59 34.23557 -118.70456 5242 ft 259 kts 114°
2026-05-06 05:00 34.22843 -118.68516 4904 ft 248 kts 114°
2026-05-06 05:00 34.22148 -118.66639 4567 ft 239 kts 114°
2026-05-06 05:00 34.21488 -118.64854 4234 ft 231 kts 115°
2026-05-06 05:00 34.20742 -118.63259 4559 ft 212 kts 118°
2026-05-06 05:01 34.20256 -118.61472 4727 ft 229 kts 101°
2026-05-06 05:01 34.20041 -118.59580 4796 ft 228 kts 92°
2026-05-06 05:01 34.20048 -118.57625 4537 ft 235 kts 90°
2026-05-06 05:01 34.20033 -118.55690 4201 ft 229 kts 91°
2026-05-06 05:02 34.20007 -118.53797 3867 ft 220 kts 91°
2026-05-06 05:02 34.19983 -118.51978 3808 ft 205 kts 91°
2026-05-06 05:02 34.19979 -118.50339 3529 ft 197 kts 91°
2026-05-06 05:02 34.19984 -118.48732 3174 ft 184 kts 91°
2026-05-06 05:03 34.19955 -118.47241 2747 ft 173 kts 92°
2026-05-06 05:03 34.19919 -118.45825 2383 ft 162 kts 92°
2026-05-06 05:03 34.19889 -118.44554 2188 ft 140 kts 91°
2026-05-06 05:03 34.19879 -118.43398 1956 ft 140 kts 91°
2026-05-06 05:04 34.19870 -118.42200 1729 ft 147 kts 90°
2026-05-06 05:04 34.19871 -118.41028 1506 ft 136 kts 92°
2026-05-06 05:04 34.19830 -118.39894 1295 ft 135 kts 92°
2026-05-06 05:04 34.19813 -118.38734 1088 ft 141 kts 91°
2026-05-06 05:05 34.19801 -118.37515 883 ft 144 kts 91°
2026-05-06 05:05 34.19787 -118.36342 716 ft 133 kts 93°
2026-05-06 05:05 34.19771 -118.35432 710 ft 79 kts 89°
2026-05-06 05:05 34.19767 -118.35083 707 ft 12 kts 88°
2026-05-06 05:06 34.19809 -118.35017 702 ft 12 kts 21°
2026-05-06 05:06 34.19871 -118.35034 703 ft 8 kts 300°
2026-05-06 05:06 34.19877 -118.35066 705 ft 0 kts 269°
2026-05-06 05:08 34.19876 -118.35088 706 ft 5 kts 269°
2026-05-06 05:08 34.19877 -118.35146 708 ft 10 kts 271°
2026-05-06 05:08 34.19880 -118.35259 712 ft 16 kts 274°
2026-05-06 05:08 34.19881 -118.35386 714 ft 15 kts 269°
2026-05-06 05:09 34.19879 -118.35493 716 ft 10 kts 258°
2026-05-06 05:09 34.19870 -118.35515 714 ft 0 kts 223°
2026-05-06 05:09 34.19865 -118.35520 715 ft 0 kts 220°
2026-05-06 05:10 34.19800 -118.35522 715 ft 10 kts 166°
2026-05-06 05:10 34.19755 -118.35524 712 ft 10 kts 175°
2026-05-06 05:11 34.19688 -118.35542 705 ft 8 kts 167°
2026-05-06 05:11 34.19657 -118.35507 707 ft 1 kts 131°
2026-05-06 05:11 34.19651 -118.35499 705 ft 0 kts 130°
2026-05-06 05:11 34.19651 -118.35498 705 ft 0 kts 130°